C/2019 LB7 ( Kleyna )

Japanese version
Home page
Updated on August 31, 2019

---------------------------------------------------------------------

* Profile

Discovery Date June 7, 2019
Magnitude 23.4 mag
Discoverer Jan Kleyna and Marco Micheli (Subaru Telescope at Mauna Kea)

* Orbital Elements

Epoch 2019 Mar. 18.0 TT = JDT 2458560.5
T 2019 Mar. 26.85644 TT                                 Williams
q   2.4788468            (2000.0)            P               Q
n   0.00518734     Peri.  335.74262     +0.88772374     +0.46011680
a  33.0501167      Node     3.26326     +0.45418034     -0.88077361
e   0.9249973      Incl.  164.23859     +0.07527801     -0.11193914
P 190
From 14 observations 2019 June 7-July 1, mean residual 0".1.

* Magnitudes Graph

        m1 = 16.5 + 5 log d + 10.0 log r

---------------------------------------------------------------------

The orbital elements are published on M.P.E.C. 2019-Q135.
The magnitudes graphs are made with Comet for Windows.

---------------------------------------------------------------------

Copyright(C) Seiichi Yoshida (comet@aerith.net). All rights reserved.